Rbgn^[z[y[W
メイン
   新天体発見情報
     Comet C/2020 A3 (ATLAS)
投稿するにはまず登録を

スレッド表示 | 新しいものから 前のトピック | 次のトピック | 下へ
投稿者 スレッド
佐藤裕久
投稿日時: 2020-1-26 15:32
モデレータ
登録日: 2005-6-12
居住地: 日本
投稿: 2099
オンライン
Comet C/2020 A3 (ATLAS)

この天体はは新しいNEO候補として1月7日UT、ATLASサーベイ(T08)によって報告されて、
NEOCPに置かれた(NEOCP A10jo2S)。1月13日、 T. Linder (807)は非常に集光した4"の
コマがある彗星らしい天体として報告した。
1月14日、J. D. ArmstrongとJ. O.  Teagarden (K93)によって彗星活動の確認がされた。
その時この天体はPCCPに移された(PCCP A10jo2S)。

彗星機能の追加報告は次の通り:

OC   Date     Reporter           Coma    Tail    PA          Exposures
J04  Jan. 17  D. Abreu            5"               
J04  Jan. 17  E. Schwab           5"             210         270s
J04  Jan. 18  M. Micheli          6"      30"    150
F65  Jan. 18  P. Breitenstein                    135 
W85  Jan. 18  P. Breitenstein                    135 
Q62  Jan. 20  H. Sato            10"                         10x60s

発見位置は次のとおり、

     2020 UT             R.A. (2000) Decl.       Mag.
     Jan.  3.56886   12 23 58.34   -37 04 18.7   19.8
           3.58646   12 23 57.94   -37 04 21.1   19.8
           7.59635   12 21 53.60   -37 12 48.2   18.9
           7.60327   12 21 53.28   -37 12 47.6   18.7
           7.60606   12 21 53.32   -37 12 47.9   18.8
           7.62642   12 21 52.63   -37 12 50.8   19.1

MPCの放物線軌道要素と位置推算表は次のとおり、

Orbital elements:
    C/2020 A3 (ATLAS)                                                           
T 2019 June 26.64190 TT                                 Bell                    
q   5.7630352            (2000.0)            P               Q                  
                   Peri.  268.18681     -0.70130169     -0.53458506             
                   Node   120.80565     -0.19915520     +0.78212412             
e   1.0            Incl.  146.69787     -0.68448021     +0.32015727             
From 36 observations 2020 Jan. 3-20.                                            
                                                                                
Ephemeris:
Date    TT    R. A. (2000) Decl.     Delta      r    Elong.  Phase   m1
2019 12 22    12 28 48.5 -36 32 02   6.1593  5.9024    70.4     9.0  19.7
...
2020 01 06    12 22 44.9 -37 09 32   5.9427  5.9264    84.3     9.5  19.6
...
2020 01 14    12 18 01.9 -37 23 38   5.8244  5.9400    92.0     9.5  19.6
...
2020 01 20    12 13 47.2 -37 30 22   5.7370  5.9504    97.8     9.4  19.5
2020 01 21    12 13 01.2 -37 31 06   5.7226  5.9522    98.7     9.4  19.5
2020 01 22    12 12 14.2 -37 31 44   5.7083  5.9540    99.7     9.4  19.5
...
2020 01 28    12 07 11.4 -37 32 53   5.6247  5.9648   105.6     9.2  19.5
...
2020 02 05    11 59 34.7 -37 26 32   5.5205  5.9798   113.3     8.7  19.5
...
2020 02 20    11 43 02.2 -36 45 46   5.3590  6.0090   127.2     7.5  19.4

(MPEC 2020-B60、CBET 4716)


スレッド表示 | 新しいものから 前のトピック | 次のトピック | トップ

投稿するにはまず登録を
 
© 1999 Tsutomu Seki.